Content
SEND FEEDBACK

Daily
Averages
Monthly
Summary
Italy

FLORENCE - AIRPORT, ITALY


Home > Europe > Italy
Elevation: 125 feet     Latitude: 43 48N     Longitude: 011 12E

WEATHER
 
SELECT A DAY
Number of Records: 248,230;   Date Range: 7/1/96 - 10/20/14
 
SHARE

PRINT THIS DATA

[ ← Previous Day ]
WEATHER ALMANAC - MAY 6, 2013
[ Next Day → ]
[ °C ]   °F
Weather ElementAverageHighLow
Temperature61.7 °F71.6 °F (12:20 pm)50 °F (5:20 am)
Dewpoint55.6 °F59 °F (11:20 am)50 °F (4:20 am)
Humidity81.8 %100 % (1:20 am)60 % (12:20 pm)
Barometer29.96 in30.01 in (12:50 am)29.92 in (2:50 pm)
Wind Speed3.5 mph9.2 mph (6:20 pm)
Weather ElementAverage
Visibility6.2 mi
Wind DirectionE (89.6 °)

Weather ElementTotal
Precipitation---
Heating Degree Days4.2 (Base 65)
Growing Degree Days10.8 (Base 50)
Averaged from 47 records on May 6, 2013
WEATHER CONDITIONS BREAKOUT
WIND DIRECTION BREAKOUT
WEATHER BY HOUR - MAY 6, 2013
[ °C ]   °F
Local TimeTemperatureDewpointHumidityBarometerVisibilityWind DirectionWind SpeedGust SpeedPrecipitationEventsConditions
12:50 AM55.4 °F53.6 °F94 %30.01 inCalmClear
1:20 AM53.6 °F53.6 °F100 %30.01 inVariable1.2 mphClear
1:50 AM53.6 °F53.6 °F100 %30.01 inEast (80°)3.5 mphClear
2:20 AM53.6 °F51.8 °F94 %30.01 inENE (70°)5.8 mphClear
2:50 AM53.6 °F51.8 °F94 %30.01 inEast (90°)3.5 mphClear
3:20 AM53.6 °F53.6 °F100 %29.98 inVariable2.3 mphClear
3:50 AM53.6 °F51.8 °F94 %29.98 inVariable1.2 mphClear
4:20 AM51.8 °F50.0 °F94 %29.98 inCalmClear
4:50 AM51.8 °F50.0 °F94 %29.95 in6.2 miVariable2.3 mphFogShallow Fog
5:20 AM50.0 °F50.0 °F100 %29.95 in6.2 miVariable2.3 mphFogShallow Fog
5:50 AM51.8 °F50.0 °F94 %29.95 in6.2 miCalmFogShallow Fog
6:20 AM50.0 °F50.0 °F100 %29.95 inVariable1.2 mphClear
6:50 AM51.8 °F50.0 °F94 %29.98 inVariable2.3 mphClear
7:20 AM53.6 °F53.6 °F100 %29.98 inSouth (180°)3.5 mphClear
7:50 AM55.4 °F55.4 °F100 %29.95 inSE (140°)3.5 mphClear
8:20 AM57.2 °F55.4 °F94 %29.98 inESE (110°)3.5 mphClear
8:50 AM59.0 °F55.4 °F88 %29.98 inESE (110°)4.6 mphClear
9:20 AM60.8 °F57.2 °F88 %29.98 inVariable2.3 mphClear
9:50 AM64.4 °F57.2 °F77 %29.98 inWSW (240°)3.5 mphClear
10:20 AM66.2 °F57.2 °F73 %29.98 in6.2 miVariable3.5 mphPartly Cloudy
10:50 AM68.0 °F57.2 °F68 %29.98 in6.2 miWest (270°)3.5 mphPartly Cloudy
11:20 AM68.0 °F59.0 °F73 %29.98 in6.2 miWSW (240°)5.8 mphPartly Cloudy
11:50 AM69.8 °F59.0 °F68 %29.98 in6.2 miWest (270°)5.8 mphPartly Cloudy
12:20 PM71.6 °F57.2 °F60 %29.95 in6.2 miVariable4.6 mphPartly Cloudy
12:50 PM69.8 °F55.4 °F60 %29.95 in6.2 miVariable4.6 mphMostly Cloudy
1:20 PM69.8 °F55.4 °F60 %29.95 in6.2 miNW (320°)4.6 mphMostly Cloudy
1:50 PM69.8 °F57.2 °F64 %29.95 in6.2 miNE (50°)5.8 mphMostly Cloudy
2:20 PM68.0 °F57.2 °F68 %29.95 in6.2 miSSW (200°)6.9 mphMostly Cloudy
2:50 PM69.8 °F59.0 °F68 %29.92 in6.2 miESE (120°)4.6 mphMostly Cloudy
3:20 PM69.8 °F57.2 °F64 %29.92 in6.2 miNNE (30°)4.6 mphMostly Cloudy
3:50 PM69.8 °F57.2 °F64 %29.92 in6.2 miVariable2.3 mphScattered Clouds
4:20 PM69.8 °F57.2 °F64 %29.92 in6.2 miEast (80°)3.5 mphScattered Clouds
4:50 PM69.8 °F55.4 °F60 %29.92 in6.2 miVariable2.3 mphMostly Cloudy
5:20 PM69.8 °F55.4 °F60 %29.92 in6.2 miSW (230°)5.8 mphMostly Cloudy
5:50 PM68.0 °F57.2 °F68 %29.92 in6.2 miVariable2.3 mphMostly Cloudy
6:20 PM68.0 °F57.2 °F68 %29.92 in6.2 miWNW (300°)9.2 mphMostly Cloudy
6:50 PM66.2 °F57.2 °F73 %29.92 in6.2 miWSW (240°)6.9 mphMostly Cloudy
7:20 PM66.2 °F57.2 °F73 %29.92 in6.2 miSW (220°)6.9 mphScattered Clouds
7:50 PM64.4 °F59.0 °F83 %29.92 in6.2 miSSW (200°)5.8 mphScattered Clouds
8:20 PM64.4 °F59.0 °F83 %29.95 in6.2 miSW (220°)5.8 mphMostly Cloudy
8:50 PM62.6 °F59.0 °F88 %29.95 in6.2 miSSW (200°)5.8 mphMostly Cloudy
9:20 PM60.8 °F59.0 °F94 %29.95 in6.2 miCalmScattered Clouds
9:50 PM60.8 °F57.2 °F88 %29.98 in6.2 miVariable1.2 mphScattered Clouds
10:20 PM60.8 °F57.2 °F88 %29.98 in6.2 miVariable2.3 mphScattered Clouds
10:50 PM60.8 °F57.2 °F88 %29.98 in6.2 miVariable2.3 mphScattered Clouds
11:20 PM60.8 °F57.2 °F88 %29.98 in6.2 miVariable2.3 mphScattered Clouds
11:50 PM60.8 °F57.2 °F88 %29.98 in6.2 miVariable1.2 mphScattered Clouds
Hourly data recorded from LIRQ, located miles away from Florence - Airport, Italy







STORIES FROM OUR PARTNERS